This demonstration page uses our WeatherBlox Daily Observations layout. Learn more.

Left ArrowRight Arrow

Hourly Observations for February 18, 2020

Temp ( °F °C ) Dew Point ( °F °C ) Humidity (%) Winds ( mph kmh ) Pressure ( in mb ) Visibility ( mi km ) Precip ( " mm )
12:53 am 00:53 Cloudy 8 -13.3 2 -16.7 76 76 NNE 10 17 30.47 1032 8 13 0.00 0.00
1:05 am 01:05 Cloudy with Light Snow 8 -13.3 2 -16.7 76 76 NNE 9 15 30.60 1036 2 3 0.00 0.00
1:13 am 01:13 Cloudy with Light Snow 7 -13.9 2 -16.7 80 80 NE 8 13 30.61 1037 1 2 0.00 0.00
1:22 am 01:22 Cloudy with Light Snow 7 -14 1 -17 78 78 NE 8 13 30.61 1037 2 2 0.00 0.00
1:32 am 01:32 Cloudy with Light Snow 8 -13.3 3 -16.1 80 80 NE 8 13 30.60 1036 3 4 0.00 0.00
1:53 am 01:53 Cloudy with Light Snow 7 -13.9 3 -16.1 84 84 ENE 9 15 30.47 1032 2 3 0.01 0.25
2:32 am 02:32 Mostly Cloudy with Light Snow 7 -13.9 3 -16.1 84 84 ENE 10 17 30.61 1037 1 2 0.01 0.25
2:46 am 02:46 Cloudy with Light Snow 7 -13.9 3 -16.1 84 84 ENE 12 19 30.61 1037 2 2 0.02 0.51
2:53 am 02:53 Cloudy with Light Snow 7 -13.9 2 -16.7 80 80 ENE 12 19 30.47 1032 1 2 0.02 0.51
3:34 am 03:34 Cloudy with Light Snow 5 -15 1 -17.2 83 83 ENE 12 19 30.62 1037 2 2 0.01 0.25
3:41 am 03:41 Cloudy with Light Snow 5 -15 1 -17.2 83 83 ENE 12 19 30.62 1037 1 2 0.01 0.25
3:51 am 03:51 Cloudy with Light Snow 5 -15 0 -18 78 78 ENE 15 24 30.62 1037 2 3 0.02 0.51
3:53 am 03:53 Cloudy with Light Snow 5 -15 0 -17.8 79 79 ENE 13 20 30.48 1032 2 3 0.02 0.51
4:11 am 04:11 Cloudy with Light Snow 5 -15 0 -17.8 79 79 ENE 13 20 30.62 1037 3 4 0.00 0.00
4:19 am 04:19 Cloudy with Light Snow 4 -15.6 -1 -18.3 80 80 ENE 13 20 30.63 1037 5 8 0.00 0.00
4:50 am 04:50 Cloudy with Light Snow 3 -16 0 -18 85 85 NE 10 17 30.65 1038 2 3 0.00 0.00
4:53 am 04:53 Cloudy with Light Snow 4 -15.6 0 -17.8 83 83 ENE 10 17 30.51 1033 2 2 0.00 0.00
5:00 am 05:00 Cloudy with Light Snow 4 -15.6 0 -17.8 83 83 NE 13 20 30.64 1038 1 2 0.01 0.25
5:20 am 05:20 Cloudy with Light Snow 4 -15.6 0 -17.8 83 83 NE 13 20 30.65 1038 2 3 0.01 0.25
5:28 am 05:28 Cloudy with Light Snow 3 -16 0 -18 85 85 NE 13 20 30.65 1038 2 3 0.00 0.00
5:53 am 05:53 Cloudy with Light Snow 3 -16.1 -1 -18.3 83 83 NE 14 22 30.52 1034 3 5 0.02 0.51
6:01 am 06:01 Cloudy with Light Snow 3 -16.1 -1 -18.3 83 83 ENE 14 22 30.66 1038 2 3 0.00 0.00
6:08 am 06:08 Cloudy with Light Snow 3 -16 0 -18 85 85 ENE 15 24 30.66 1038 2 2 0.00 0.00
6:22 am 06:22 Cloudy with Light Snow 3 -16 -2 -19 78 78 ENE 14 22 30.66 1038 1 2 0.00 0.00
6:36 am 06:36 Cloudy with Light Snow 3 -16.1 -2 -18.9 79 79 ENE 15 24 30.66 1038 2 3 0.00 0.00
6:46 am 06:46 Cloudy with Light Snow 2 -16.7 -2 -18.9 83 83 ENE 15 24 30.67 1039 3 4 0.00 0.00
6:53 am 06:53 Cloudy with Haze 2 -16.7 -3 -19.4 80 80 ENE 13 20 30.54 1034 3 5 0.00 0.00
7:01 am 07:01 Cloudy with Haze 2 -16.7 -3 -19.4 80 80 ENE 14 22 30.67 1039 3 5 0.00 0.00
7:22 am 07:22 Cloudy with Haze 2 -16.7 -3 -19.4 80 80 ENE 14 22 30.67 1039 2 3 0.01 0.25
7:53 am 07:53 Cloudy with Haze 2 -16.7 -3 -19.4 80 80 ENE 12 19 30.56 1035 3 4 0.01 0.25
8:00 am 08:00 Cloudy with Haze 1 -17 -2 -19 85 85 ENE 14 22 30.69 1039 3 5 0.00 0.00
8:21 am 08:21 Cloudy 2 -16.7 -3 -19.4 80 80 ENE 13 20 30.69 1039 7 11 0.00 0.00
8:53 am 08:53 Cloudy 2 -16.7 -3 -19.4 80 80 ENE 13 20 30.57 1035 9 14 0.00 0.00
9:23 am 09:23 Cloudy 2 -16.7 -4 -20 76 76 ENE 14 22 30.70 1040 8 13 0.00 0.00
9:32 am 09:32 Mostly Cloudy 3 -16.1 -3 -19.4 76 76 ENE 12 19 30.70 1040 10 16 0.00 0.00
9:53 am 09:53 Partly Cloudy 3 -16.1 -3 -19.4 76 76 ENE 15 24 30.58 1036 10 16 0.00 0.00
10:53 am 10:53 Sunny 5 -15 -2 -18.9 72 72 E 8 13 30.57 1035 10 16 0.00 0.00
11:53 am 11:53 Sunny 7 -13.9 -2 -18.9 66 66 ENE 8 13 30.58 1036 10 16 0.00 0.00
12:53 pm 12:53 Sunny 10 -12.2 -1 -18.3 61 61 Calm 30.56 1035 10 16 0.00 0.00
1:53 pm 13:53 Sunny 10 -12.2 0 -17.8 63 63 SSE 5 7 30.54 1034 10 16 0.00 0.00
2:53 pm 14:53 Sunny 11 -11.7 1 -17.2 64 64 ENE 3 6 30.54 1034 10 16 0.00 0.00
3:53 pm 15:53 Sunny 11 -11.7 1 -17.2 64 64 SW 3 6 30.55 1035 10 16 0.00 0.00
4:53 pm 16:53 Sunny 8 -13.3 -1 -18.3 66 66 ENE 8 13 30.55 1035 10 16 0.00 0.00
5:53 pm 17:53 Mostly Clear 5 -15 -2 -18.9 72 72 ENE 7 11 30.56 1035 10 16 0.00 0.00
6:53 pm 18:53 Partly Cloudy 4 -15.6 -2 -18.9 76 76 E 7 11 30.58 1036 10 16 0.00 0.00
7:53 pm 19:53 Mostly Cloudy 3 -16.1 -3 -19.4 76 76 ENE 8 13 30.58 1036 10 16 0.00 0.00
8:53 pm 20:53 Mostly Clear 2 -16.7 -3 -19.4 80 80 E 8 13 30.59 1036 10 16 0.00 0.00
9:53 pm 21:53 Clear 1 -17.2 -4 -20 79 79 E 6 9 30.58 1036 10 16 0.00 0.00
10:53 pm 22:53 Clear -2 -18.9 -6 -21.1 83 83 ESE 5 7 30.59 1036 10 16 0.00 0.00
11:53 pm 23:53 Mostly Clear 0 -17.8 -4 -20 83 83 ESE 5 7 30.59 1036 10 16 0.00 0.00

Powered by AerisWeather